Vancouver, WA
on Friday, November 9, 2012

Friday
Previous Day Next Day
Daily Summary
 ActualAverageRecord
Temperature
Mean Temperature °F 48°F  
Max Temperature 46°F 55°F 71°F (1907)
Min Temperature 35°F 41°F 29°F (2005)
Degree Days
Heating Degree Days 24    
Month to date heating degree days 108  
Since 1 July heating degree days 427  
Cooling Degree Days 0    
Month to date cooling degree days 0  
Year to date cooling degree days 398  
Moisture
Dew Point 37°F   
Average Humidity 86    
Maximum Humidity 100    
Minimum Humidity 71    
Precipitation
Precipitation 0.00 in 0.19 in 2.41 in (1973)
Month to date precipitation 0.50 1.58  
Year to date precipitation 31.66 28.04  
Snow
Snow 0.00 in in in ()
Month to date snowfall 0.0  
Since 1 July snowfall 0.0  
Since 1 September snowfall 0.0  
Snow Depth 0.00 in   
Wind
Wind Speed 1 mph   
Max Wind Speed 6 mph   
Max Gust Speed 8 mph   
Visibility 7 miles   
Events     

Key: T is trace of precipitation, MM is missing value
Source: NWS Daily Summary
Time(PST)TemperatureDew PointHumidity Pressure Visibility Wind DirectionWind SpeedGust SpeedPrecipitationEvents Conditions
12:53 AM 36.0°F 33.1°F 89% 29.86 in 9.0 miles Calm Calm - N/A   Partly Cloudy
1:24 AM 35.6°F 33.8°F 93% 29.86 in 10.0 miles Calm Calm - N/A   Mostly Cloudy
1:53 AM 37.0°F 35.1°F 93% 29.87 in 9.0 miles Calm Calm - N/A   Overcast
2:53 AM 41.0°F 37.9°F 89% 29.87 in 10.0 miles Calm Calm - N/A   Overcast
3:26 AM 41.0°F 37.4°F 87% 29.87 in 10.0 miles Calm Calm - N/A   Mostly Cloudy
3:53 AM 39.9°F 37.0°F 89% 29.88 in 10.0 miles Calm Calm - N/A   Mostly Cloudy
4:41 AM 35.6°F 33.8°F 93% 29.88 in 1.5 miles West 4.6 mph - N/A   Partly Cloudy
4:46 AM 35.6°F 33.8°F 93% 29.88 in 0.8 miles West 4.6 mph - N/A   Scattered Clouds
4:51 AM 35.6°F 35.6°F 100% 29.88 in 0.8 miles Calm Calm - N/A   Mist
4:53 AM 37.0°F 35.1°F 93% 29.88 in 0.8 miles Calm Calm - N/A   Mist
5:45 AM 37.4°F 37.4°F 100% 29.89 in 1.0 miles Calm Calm - N/A   Overcast
5:51 AM 37.4°F 37.4°F 100% 29.89 in 2.0 miles Calm Calm - N/A   Overcast
5:53 AM 37.9°F 37.0°F 97% 29.89 in 2.5 miles Calm Calm - N/A   Overcast
6:02 AM 37.4°F 37.4°F 100% 29.89 in 3.0 miles Calm Calm - N/A   Overcast
6:11 AM 39.2°F 37.4°F 93% 29.89 in 5.0 miles Calm Calm - N/A   Overcast
6:53 AM 39.9°F 37.9°F 93% 29.89 in 7.0 miles NW 3.5 mph - N/A   Overcast
7:53 AM 39.9°F 37.9°F 93% 29.91 in 6.0 miles NNW 3.5 mph - N/A   Overcast
8:53 AM 41.0°F 37.9°F 89% 29.91 in 6.0 miles Calm Calm - N/A   Overcast
9:53 AM 42.1°F 39.0°F 89% 29.91 in 6.0 miles Calm Calm - N/A   Overcast
10:38 AM 42.8°F 37.4°F 81% 29.92 in 6.0 miles Calm Calm - N/A   Haze
10:53 AM 44.1°F 37.9°F 79% 29.92 in 7.0 miles Calm Calm - N/A   Overcast
11:06 AM 44.6°F 37.4°F 76% 29.91 in 7.0 miles Calm Calm - N/A   Overcast
11:16 AM 44.6°F 37.4°F 76% 29.91 in 7.0 miles Calm Calm - N/A   Overcast
11:53 AM 44.1°F 37.9°F 79% 29.90 in 7.0 miles WNW 3.5 mph - N/A   Overcast
12:49 PM 44.6°F 39.2°F 81% 29.88 in 7.0 miles Calm Calm - N/A   Overcast
12:53 PM 45.0°F 39.0°F 80% 29.88 in 7.0 miles Calm Calm - N/A   Overcast
1:53 PM 46.0°F 37.9°F 73% 29.87 in 10.0 miles Calm Calm - N/A   Overcast
2:38 PM 46.4°F 37.4°F 71% 29.86 in 10.0 miles Calm Calm - N/A   Scattered Clouds
2:53 PM 46.0°F 37.9°F 73% 29.86 in 10.0 miles Calm Calm - N/A   Mostly Cloudy
3:15 PM 46.4°F 37.4°F 71% 29.86 in 10.0 miles Calm Calm - N/A   Mostly Cloudy
3:29 PM 46.4°F 39.2°F 76% 29.86 in 10.0 miles WNW 4.6 mph - N/A   Mostly Cloudy
3:53 PM 46.0°F 39.0°F 76% 29.86 in 10.0 miles NW 3.5 mph - N/A   Mostly Cloudy
4:53 PM 43.0°F 37.9°F 82% 29.87 in 10.0 miles Calm Calm - N/A   Partly Cloudy
5:53 PM 37.9°F 35.1°F 89% 29.88 in 9.0 miles Calm Calm - N/A   Clear
6:53 PM 37.9°F 36.0°F 93% 29.89 in 8.0 miles Calm Calm - N/A   Mostly Cloudy
7:20 PM 41.0°F 37.4°F 87% 29.89 in 9.0 miles Calm Calm - N/A   Scattered Clouds
7:53 PM 37.0°F 34.0°F 89% 29.90 in 7.0 miles Calm Calm - N/A   Clear
8:53 PM 37.9°F 35.1°F 89% 29.91 in 6.0 miles Calm Calm - N/A   Overcast
9:53 PM 37.0°F 35.1°F 93% 29.92 in 6.0 miles Calm Calm - N/A   Mostly Cloudy
10:02 PM 37.4°F 35.6°F 93% 29.92 in 6.0 miles Calm Calm - N/A   Overcast
10:53 PM 41.0°F 37.9°F 89% 29.93 in 8.0 miles NNW 4.6 mph - N/A   Overcast
11:21 PM 39.2°F 37.4°F 93% 29.94 in 7.0 miles Calm Calm - N/A   Mostly Cloudy
11:28 PM 39.2°F 37.4°F 93% 29.94 in 8.0 miles Calm Calm - N/A   Mostly Cloudy
11:53 PM 39.0°F 36.0°F 89% 29.95 in 9.0 miles NNW 3.5 mph - N/A   Overcast
Moon Phase
Nov. 09 Nov. 13 Nov. 20 Nov. 28 Dec. 06
Sunrise:07:02 AM (PST) Moon Rise:01:53 AM (PST)11/9
Sunset:04:45 PM (PST) Moon Set:02:13 PM (PST)11/9

Copyright © 2014 The Weather Underground, Inc.